{"data":{"norad_id":37779,"intl_designator":"2011-042A","name":"PAKSAT-1R","alt_names":[],"object_type":"PAYLOAD","status":"ACTIVE","operator":null,"country":"PAKI","launch_date":"2011-08-11","launch_site_code":"XICLF","launch_vehicle":null,"mission":null,"orbit_class":"UNKNOWN","rcs_meters":14.6852,"size_class":null,"mass_kg":null,"dimensions":null,"purposes":["comms"],"wikipedia_slug":null,"has_3d_model":false,"image_url":null,"decayed_at":null,"tle_current":{"epoch":"2026-05-25T03:55:23.729376Z","epoch_age_seconds":67733,"freshness":"FRESH","line1":"1 37779U 11042A   26145.16346909  .00000152  00000+0  00000+0 0  9993","line2":"2 37779   0.6313  84.7827 0003357 329.7380 285.0899  1.00267862 54242","mean_motion":1.00267862,"eccentricity":0.0003357,"inclination_deg":0.6313,"raan_deg":84.7827,"arg_perigee_deg":329.738,"mean_anomaly_deg":285.0899,"bstar":0,"rev_number":5424,"period_min":1436.1530916058,"perigee_km":35773.539686636,"apogee_km":35801.849826077,"semimajor_km":42165.831756356,"source":"CELESTRAK","updated_at":"2026-05-25T13:38:13.903573Z"}}}